When you browse on this site, cookies collect data to enhance your experience and personalize the content and advertising you see.
Visit our Privacy Policy to learn more. By continuing to use the site, you agree to this use of cookies and data.
  • In Sweden
  • List of Countries
  • For 7 days
  • Water Temperature
  • Satellite Maps
  • Weather Map
  • Weather Widgets
  • user-avatar
    Login

    Hourly Weather Michurino

    Today, 16 June, Sunday

    Time Temperature Precipitation Wind Pressure Humidity
    00:00 +11°C° 2.5 mm 6 mps 743 mmHg 87%
    01:00 +10°C° 2.5 mm 7 mps 743 mmHg 90%
    02:00 +9°C° 2.5 mm 7 mps 742 mmHg 93%
    03:00 +9°C° 3.7 mm 8 mps 742 mmHg 92%
    04:00 +9°C° 3.7 mm 8 mps 742 mmHg 90%
    05:00 +7°C° 3.7 mm 8 mps 743 mmHg 89%
    06:00 +8°C° 1.9 mm 7 mps 743 mmHg 89%
    07:00 +8°C° 1.9 mm 6 mps 744 mmHg 89%
    08:00 +8°C° 1.9 mm 5 mps 744 mmHg 89%
    09:00 +9°C° 0.4 mm 5 mps 745 mmHg 79%
    10:00 +12°C° 0.4 mm 5 mps 745 mmHg 69%
    11:00 +13°C° 0.4 mm 5 mps 746 mmHg 60%
    12:00 +14°C° 0.1 mm 4 mps 746 mmHg 57%
    13:00 +15°C° 0.1 mm 4 mps 747 mmHg 54%
    14:00 +17°C° 0.1 mm 4 mps 747 mmHg 51%
    15:00 +17°C° 0.4 mm 4 mps 747 mmHg 52%
    16:00 +17°C° 0.4 mm 4 mps 747 mmHg 53%
    17:00 +17°C° 0.4 mm 4 mps 747 mmHg 54%
    18:00 +16°C° 0.1 mm 3 mps 747 mmHg 57%
    19:00 +14°C° 0.1 mm 3 mps 747 mmHg 61%
    20:00 +13°C° 0.1 mm 3 mps 747 mmHg 64%
    21:00 +13°C° 0 mm 3 mps 747 mmHg 63%
    22:00 +12°C° 0 mm 3 mps 748 mmHg 63%
    23:00 +11°C° 0 mm 4 mps 748 mmHg 62%

    Tomorrow, 17 June, Monday

    Time Temperature Precipitation Wind Pressure Humidity
    00:00 +11°C° 0 mm 4 mps 748 mmHg 63%
    01:00 +11°C° 0 mm 4 mps 748 mmHg 64%
    02:00 +11°C° 0 mm 4 mps 747 mmHg 65%
    03:00 +11°C° 0 mm 4 mps 747 mmHg 67%
    04:00 +11°C° 0 mm 4 mps 747 mmHg 69%
    05:00 +11°C° 0 mm 4 mps 747 mmHg 71%
    06:00 +13°C° 0 mm 4 mps 748 mmHg 66%
    07:00 +15°C° 0 mm 4 mps 748 mmHg 61%
    08:00 +17°C° 0 mm 5 mps 748 mmHg 56%
    09:00 +19°C° 0 mm 4 mps 747 mmHg 51%
    10:00 +20°C° 0 mm 4 mps 747 mmHg 47%
    11:00 +21°C° 0 mm 4 mps 747 mmHg 42%
    12:00 +21°C° 0 mm 4 mps 746 mmHg 42%
    13:00 +21°C° 0 mm 4 mps 746 mmHg 41%
    14:00 +21°C° 0 mm 4 mps 746 mmHg 41%
    15:00 +21°C° 0 mm 4 mps 746 mmHg 40%
    16:00 +21°C° 0 mm 4 mps 745 mmHg 40%
    17:00 +22°C° 0 mm 4 mps 745 mmHg 39%
    18:00 +20°C° 0 mm 3 mps 745 mmHg 43%
    19:00 +19°C° 0 mm 3 mps 745 mmHg 47%
    20:00 +17°C° 0 mm 3 mps 744 mmHg 51%
    21:00 +17°C° 0 mm 3 mps 744 mmHg 50%
    22:00 +17°C° 0 mm 4 mps 744 mmHg 49%
    23:00 +15°C° 0 mm 4 mps 744 mmHg 48%

    Day after tomorrow, 18 June, Tuesday

    Time Temperature Precipitation Wind Pressure Humidity
    00:00 +15°C° 0 mm 4 mps 744 mmHg 52%
    01:00 +15°C° 0 mm 4 mps 743 mmHg 56%
    02:00 +15°C° 0 mm 4 mps 743 mmHg 60%
    03:00 +16°C° 0 mm 3 mps 743 mmHg 64%
    04:00 +16°C° 0 mm 2 mps 743 mmHg 67%
    05:00 +16°C° 0 mm 1 mps 743 mmHg 71%
    06:00 +16°C° 0.1 mm 1 mps 742 mmHg 72%
    07:00 +16°C° 0.1 mm 1 mps 742 mmHg 74%
    08:00 +16°C° 0.1 mm 1 mps 742 mmHg 75%
    09:00 +16°C° 0.2 mm 2 mps 742 mmHg 77%
    10:00 +15°C° 0.2 mm 2 mps 742 mmHg 79%
    11:00 +15°C° 0.2 mm 2 mps 742 mmHg 80%
    12:00 +14°C° 0.1 mm 3 mps 741 mmHg 82%
    13:00 +14°C° 0.1 mm 3 mps 741 mmHg 83%
    14:00 +14°C° 0.1 mm 3 mps 741 mmHg 84%
    15:00 +16°C° 0 mm 3 mps 741 mmHg 78%
    16:00 +17°C° 0 mm 4 mps 741 mmHg 72%
    17:00 +18°C° 0 mm 4 mps 742 mmHg 66%
    18:00 +17°C° 0.1 mm 4 mps 742 mmHg 68%
    19:00 +16°C° 0.1 mm 3 mps 743 mmHg 71%
    20:00 +14°C° 0.1 mm 3 mps 743 mmHg 74%
    21:00 +13°C° 0 mm 3 mps 744 mmHg 75%
    22:00 +14°C° 0 mm 2 mps 744 mmHg 76%
    23:00 +13°C° 0 mm 2 mps 744 mmHg 76%

    19 June, Wednesday

    Time Temperature Precipitation Wind Pressure Humidity
    00:00 +13°C° 0 mm 2 mps 745 mmHg 76%
    01:00 +12°C° 0 mm 2 mps 745 mmHg 75%
    02:00 +12°C° 0 mm 2 mps 745 mmHg 75%
    03:00 +12°C° 0 mm 2 mps 745 mmHg 73%
    04:00 +12°C° 0 mm 2 mps 745 mmHg 70%
    05:00 +12°C° 0 mm 3 mps 745 mmHg 68%
    06:00 +14°C° 0 mm 3 mps 745 mmHg 61%
    07:00 +17°C° 0 mm 4 mps 746 mmHg 55%
    08:00 +19°C° 0 mm 4 mps 746 mmHg 48%
    09:00 +20°C° 0 mm 5 mps 746 mmHg 47%
    10:00 +20°C° 0 mm 6 mps 746 mmHg 46%
    11:00 +21°C° 0 mm 6 mps 746 mmHg 45%
    12:00 +21°C° 0.4 mm 7 mps 746 mmHg 48%
    13:00 +21°C° 0.4 mm 7 mps 746 mmHg 51%
    14:00 +21°C° 0.4 mm 7 mps 746 mmHg 54%
    15:00 +20°C° 0.1 mm 6 mps 747 mmHg 53%
    16:00 +20°C° 0.1 mm 6 mps 747 mmHg 53%
    17:00 +20°C° 0.1 mm 5 mps 748 mmHg 52%
    18:00 +17°C° 0 mm 5 mps 748 mmHg 56%
    19:00 +17°C° 0 mm 4 mps 749 mmHg 60%
    20:00 +14°C° 0 mm 3 mps 749 mmHg 64%
    21:00 +13°C° 0 mm 3 mps 749 mmHg 65%
    22:00 +13°C° 0 mm 2 mps 750 mmHg 67%
    23:00 +12°C° 0 mm 2 mps 750 mmHg 68%

    20 June, Thursday

    Time Temperature Precipitation Wind Pressure Humidity
    00:00 +12°C° 0 mm 2 mps 750 mmHg 68%
    01:00 +12°C° 0 mm 1 mps 750 mmHg 68%
    02:00 +11°C° 0 mm 1 mps 751 mmHg 68%
    03:00 +12°C° 0 mm 1 mps 751 mmHg 68%
    04:00 +12°C° 0 mm 1 mps 751 mmHg 68%
    05:00 +13°C° 0 mm 1 mps 751 mmHg 67%
    06:00 +14°C° 0 mm 2 mps 751 mmHg 61%
    07:00 +16°C° 0 mm 2 mps 751 mmHg 55%
    08:00 +18°C° 0 mm 3 mps 751 mmHg 48%
    09:00 +19°C° 0 mm 3 mps 751 mmHg 46%
    10:00 +20°C° 0 mm 3 mps 751 mmHg 43%
    11:00 +21°C° 0 mm 3 mps 751 mmHg 41%
    12:00 +21°C° 0 mm 3 mps 751 mmHg 39%
    13:00 +23°C° 0 mm 2 mps 751 mmHg 38%
    14:00 +23°C° 0 mm 2 mps 751 mmHg 37%
    15:00 +23°C° 0 mm 2 mps 751 mmHg 38%
    16:00 +23°C° 0 mm 2 mps 751 mmHg 39%
    17:00 +23°C° 0 mm 1 mps 750 mmHg 40%
    18:00 +22°C° 0 mm 1 mps 750 mmHg 43%
    19:00 +21°C° 0 mm 1 mps 750 mmHg 46%
    20:00 +20°C° 0 mm 1 mps 750 mmHg 49%
    21:00 +18°C° 0 mm 2 mps 750 mmHg 49%
    22:00 +18°C° 0 mm 2 mps 750 mmHg 49%
    23:00 +17°C° 0 mm 2 mps 750 mmHg 49%

    21 June, Friday

    Time Temperature Precipitation Wind Pressure Humidity
    00:00 +17°C° 0 mm 2 mps 750 mmHg 51%
    01:00 +16°C° 0 mm 3 mps 749 mmHg 52%
    02:00 +14°C° 0 mm 3 mps 749 mmHg 54%
    03:00 +14°C° 0 mm 3 mps 749 mmHg 56%
    04:00 +14°C° 0 mm 3 mps 749 mmHg 58%
    05:00 +14°C° 0 mm 3 mps 749 mmHg 60%
    06:00 +17°C° 0 mm 3 mps 749 mmHg 56%
    07:00 +18°C° 0 mm 3 mps 749 mmHg 52%
    08:00 +20°C° 0 mm 3 mps 749 mmHg 48%
    09:00 +21°C° 0 mm 3 mps 749 mmHg 44%
    10:00 +23°C° 0 mm 2 mps 748 mmHg 41%
    11:00 +24°C° 0 mm 2 mps 748 mmHg 37%
    12:00 +25°C° 0 mm 2 mps 748 mmHg 36%
    13:00 +25°C° 0 mm 2 mps 747 mmHg 35%
    14:00 +26°C° 0 mm 2 mps 747 mmHg 35%
    15:00 +26°C° 0 mm 2 mps 747 mmHg 34%
    16:00 +26°C° 0 mm 2 mps 746 mmHg 33%
    17:00 +26°C° 0 mm 2 mps 746 mmHg 32%
    18:00 +25°C° 0 mm 2 mps 746 mmHg 38%
    19:00 +23°C° 0 mm 2 mps 746 mmHg 43%
    20:00 +21°C° 0 mm 3 mps 746 mmHg 48%
    21:00 +20°C° 0 mm 3 mps 745 mmHg 50%
    22:00 +19°C° 0 mm 3 mps 745 mmHg 52%
    23:00 +18°C° 0 mm 3 mps 745 mmHg 54%
    Show more